This demonstration page uses our WeatherBlox Daily Observations layout. Learn more.

Left ArrowRight Arrow

39.01783, -85.05884

Hourly Observations for May 5, 2022

Temp ( °F °C ) Dew Point ( °F °C ) Humidity (%) Winds ( mph kmh ) Pressure ( in mb ) Visibility ( mi km ) Precip ( " mm )
12:52 am 00:52 Cloudy 55 12.8 51 10.6 87 87 ENE 10 17 30.14 1021 8 13 0.00 0.00
1:52 am 01:52 Cloudy 55 12.8 51 10.6 87 87 ENE 10 17 30.11 1020 8 13 0.00 0.00
2:52 am 02:52 Cloudy 54 12.2 51 10.6 90 90 E 8 13 30.08 1019 9 14 0.00 0.00
3:52 am 03:52 Cloudy 55 12.8 51 10.6 87 87 ENE 5 7 30.11 1020 10 16 0.00 0.00
4:52 am 04:52 Cloudy 54 12.2 51 10.6 90 90 ENE 5 7 30.12 1020 10 16 0.00 0.00
5:52 am 05:52 Cloudy 54 12.2 51 10.6 90 90 ENE 5 7 30.11 1020 10 16 0.00 0.00
6:52 am 06:52 Cloudy 54 12.2 51 10.6 90 90 ENE 6 9 30.11 1020 10 16 0.00 0.00
7:52 am 07:52 Cloudy 54 12.2 52 11.1 93 93 ENE 6 9 30.11 1020 8 13 0.00 0.00
8:52 am 08:52 Cloudy with Mist and Fog 55 12.8 52 11.1 90 90 E 9 15 30.10 1019 5 8 0.00 0.00
9:27 am 09:27 Cloudy 56 13.3 52 11.1 87 87 E 10 17 30.10 1019 7 11 0.00 0.00
9:41 am 09:41 Cloudy 56 13.3 52 11.1 87 87 ESE 8 13 30.10 1019 7 11 0.00 0.00
9:52 am 09:52 Cloudy 56 13.3 52 11.1 87 87 SE 7 11 30.10 1019 7 11 0.00 0.00
10:52 am 10:52 Cloudy 58 14.4 52 11.1 81 81 E 12 19 30.06 1018 9 14 0.00 0.00
11:52 am 11:52 Cloudy 59 15 51 10.6 75 75 SE 9 15 30.07 1018 10 16 0.00 0.00
12:52 pm 12:52 Cloudy 60 15.6 52 11.1 75 75 ESE 13 20 30.04 1017 10 16 0.00 0.00
1:52 pm 13:52 Cloudy 60 15.6 52 11.1 75 75 ESE 6 9 30.03 1017 10 16 0.00 0.00
2:26 pm 14:26 Cloudy 61 16.1 52 11.1 72 72 E 12 19 29.99 1016 10 16 0.00 0.00
2:52 pm 14:52 Cloudy 62 16.7 53 11.7 73 73 E 12 19 29.98 1015 10 16 0.00 0.00
3:43 pm 15:43 Cloudy 62 16.7 53 11.7 73 73 NW 9 15 30.03 1017 10 16 0.00 0.00
3:52 pm 15:52 Cloudy with Light Rain 61 16.1 54 12.2 78 78 N 7 11 30.00 1016 8 13 0.01 0.25
4:09 pm 16:09 Cloudy with Light Rain 61 16.1 55 12.8 81 81 NE 10 17 29.98 1015 9 14 0.00 0.00
4:52 pm 16:52 Cloudy 61 16.1 56 13.3 84 84 ENE 13 20 29.93 1013 10 16 0.00 0.00
5:52 pm 17:52 Cloudy with Light Rain 60 15.6 56 13.3 86 86 ENE 14 22 29.91 1013 8 13 0.04 1.02
6:52 pm 18:52 Cloudy 58 14.4 57 13.9 97 97 E 15 24 29.89 1012 10 16 0.00 0.00
7:52 pm 19:52 Cloudy 59 15 57 13.9 93 93 E 9 15 29.88 1012 10 16 0.00 0.00
8:52 pm 20:52 Cloudy 59 15 56 13.3 90 90 E 9 15 29.86 1011 10 16 0.00 0.00
9:52 pm 21:52 Cloudy with Light Rain 58 14.4 57 13.9 97 97 E 7 11 29.85 1011 9 14 0.00 0.00
10:03 pm 22:03 Cloudy with Heavy Rain 58 14.4 57 13.9 97 97 NW 12 19 29.90 1012 2 3 0.01 0.25
10:17 pm 22:17 Cloudy with Light Rain 58 14.4 57 13.9 97 97 NNW 10 17 29.90 1012 3 5 0.12 3.05
10:52 pm 22:52 Cloudy with Light Rain 58 14.4 57 13.9 97 97 E 12 19 29.87 1011 4 6 0.14 3.56
11:52 pm 23:52 Cloudy with Mist and Fog 58 14.4 57 13.9 97 97 E 8 13 29.83 1010 6 10 0.00 0.00

Powered by AerisWeather